This demonstration page uses our WeatherBlox Daily Observations layout. Learn more.

Left ArrowRight Arrow

Hourly Observations for October 15, 2016

Temp ( °F °C ) Dew Point ( °F °C ) Humidity (%) Winds ( mph kmh ) Pressure ( in mb ) Visibility ( mi km ) Precip ( " mm )
12:53 am 00:53 Clear 42 5.6 34 1.1 73 73 SW 18 30 29.61 1003 10 16 0.00 0.00
1:53 am 01:53 Clear 42 5.6 34 1.1 73 73 SW 18 30 29.61 1003 10 16 0.00 0.00
2:53 am 02:53 Clear 44 6.7 35 1.7 71 71 SW 23 37 29.59 1002 10 16 0.00 0.00
3:53 am 03:53 Clear 42 5.6 35 1.7 76 76 SW 17 28 29.60 1002 10 16 0.00 0.00
4:53 am 04:53 Clear 42 5.6 34 1.1 73 73 SW 17 28 29.61 1003 10 16 0.00 0.00
5:53 am 05:53 Clear 41 5 33 0.6 73 73 SW 21 33 29.61 1003 10 16 0.00 0.00
6:53 am 06:53 Clear 41 5 33 0.6 73 73 SW 13 20 29.63 1003 10 16 0.00 0.00
7:53 am 07:53 Sunny 39 3.9 33 0.6 79 79 SW 9 15 29.64 1004 10 16 0.00 0.00
8:53 am 08:53 Sunny 42 5.6 35 1.7 76 76 SW 14 22 29.64 1004 10 16 0.00 0.00
9:53 am 09:53 Sunny 49 9.4 37 2.8 64 64 SW 17 28 29.64 1004 10 16 0.00 0.00
10:53 am 10:53 Sunny 55 12.8 39 3.9 55 55 SW 22 35 29.65 1004 10 16 0.00 0.00
11:53 am 11:53 Sunny 60 15.6 40 4.4 47 47 SW 23 37 29.65 1004 10 16 0.00 0.00
12:53 pm 12:53 Sunny 63 17.2 37 2.8 38 38 WSW 23 37 29.64 1004 10 16 0.00 0.00
1:53 pm 13:53 Sunny 63 17.2 38 3.3 40 40 WSW 22 35 29.62 1003 10 16 0.00 0.00
2:53 pm 14:53 Sunny 62 16.7 40 4.4 44 44 SW 16 26 29.62 1003 10 16 0.00 0.00
3:53 pm 15:53 Sunny 61 16.1 39 3.9 44 44 WSW 16 26 29.63 1004 10 16 0.00 0.00
4:53 pm 16:53 Sunny 58 14.4 40 4.4 51 51 WSW 8 13 29.65 1004 10 16 0.00 0.00
5:53 pm 17:53 Sunny 55 12.8 40 4.4 57 57 Calm 29.64 1004 10 16 0.00 0.00
6:53 pm 18:53 Clear 51 10.6 39 3.9 64 64 SSE 6 9 29.62 1003 10 16 0.00 0.00
7:53 pm 19:53 Clear 48 8.9 39 3.9 71 71 E 5 7 29.62 1003 10 16 0.00 0.00
8:53 pm 20:53 Clear 44 6.7 38 3.3 79 79 E 6 9 29.60 1002 10 16 0.00 0.00
9:53 pm 21:53 Mostly Cloudy 46 7.8 38 3.3 73 73 ENE 12 19 29.55 1001 10 16 0.00 0.00
10:53 pm 22:53 Cloudy 47 8.3 37 2.8 69 69 ENE 12 19 29.51 999 10 16 0.00 0.00
11:53 pm 23:53 Mostly Clear 46 7.8 37 2.8 71 71 ENE 10 17 29.46 998 10 16 0.00 0.00

Powered by AerisWeather